Lapse_Rate
7.2 6.5 6.5 6.5 6.5 6.5 6.5 6.5 6.5 6.5 6.5 6.5 6.5 6.5 6.5 6.8 6.9 6.7 7.0 7.4 7.6 7.7 8.0 8.7 8.9 9.1 9.1 9.1 8.8 8.5 7.8 7.4 8.0 8.1 7.9 6.8 8.1 8.3 7.2 3.6 6.8 7.3 8.3 8.6
6.5 6.5 6.5 6.5 6.5 6.5 6.5 6.5 6.5 6.5 6.5 6.5 6.5 6.5 6.5 6.5 6.3 6.8 7.0 7.2 6.9 6.1 7.4 8.4 8.7 8.8 8.9 8.5 8.7 8.2 7.7 7.4 8.2 7.9 6.5 5.6 4.1 7.2 7.1 7.4 8.4 8.3 8.1 7.9
6.5 6.5 6.5 6.5 6.5 6.5 6.5 6.5 6.5 6.5 6.5 6.5 6.5 6.5 6.5 6.6 6.9 6.6 7.0 7.5 7.7 7.5 6.3 8.3 8.5 8.5 8.8 8.3 8.4 8.4 7.8 7.1 7.2 8.0 5.6 2.9 4.7 6.5 6.8 6.1 7.2 8.5 8.4 8.3
6.5 6.6 6.5 6.5 6.5 6.5 6.5 6.5 6.5 6.5 6.5 6.5 6.5 6.5 6.5 6.5 6.5 6.5 6.6 7.1 7.2 7.6 7.4 8.1 8.5 8.7 8.7 8.4 8.7 8.3 8.3 6.9 7.1 6.8 7.5 7.0 6.7 4.9 6.7 6.4 6.5 7.9 7.9 8.6
6.5 6.5 6.5 6.5 6.5 6.5 6.5 6.5 6.5 6.5 6.5 6.5 6.5 6.5 6.5 6.5 6.5 6.5 6.4 7.4 7.6 7.9 7.2 7.9 8.3 8.1 8.7 8.8 8.9 8.4 8.4 7.0 7.6 7.7 6.8 6.1 3.2 0.9 3.3 4.0 7.2 7.5 6.8 7.7
6.5 7.1 6.5 6.5 6.5 6.5 6.5 6.5 6.5 6.5 6.5 6.5 6.5 6.5 6.5 6.5 6.5 6.5 6.9 7.4 7.7 7.9 8.0 8.0 7.5 7.9 8.1 9.1 8.9 8.4 8.1 7.2 7.0 7.9 7.1 7.0 4.6 3.7 4.1 5.0 6.1 6.9 7.5 7.7
6.5 6.5 6.5 6.7 6.5 6.5 6.5 6.5 6.5 6.5 6.5 6.5 6.5 6.5 6.5 6.5 6.5 6.5 6.7 6.9 7.1 6.6 7.4 7.9 8.2 8.2 7.4 8.4 8.6 8.0 7.0 7.3 7.1 7.0 7.2 6.4 7.3 3.5 4.5 6.1 7.0 5.5 6.4 7.5
6.5 6.5 6.5 6.5 6.5 6.5 6.5 6.5 6.5 6.5 6.5 6.5 6.5 6.5 6.5 6.5 7.0 6.7 7.3 7.4 7.5 5.1 3.7 6.7 7.4 6.2 6.3 7.5 8.1 7.6 6.3 6.0 6.7 6.9 6.8 6.3 6.0 6.2 6.1 6.8 5.5 4.2 4.1 3.5
6.5 6.5 6.5 6.5 6.5 6.5 6.5 6.5 6.5 6.5 6.5 6.5 6.5 6.5 6.5 6.5 6.5 7.0 7.1 7.4 7.4 7.6 7.8 5.0 6.0 7.6 6.7 6.3 6.3 7.3 5.6 5.5 5.9 6.4 6.4 6.5 6.2 6.2 8.0 8.0 7.3 7.5 3.3 5.5
6.5 6.5 6.5 6.5 6.6 6.6 6.5 6.5 6.5 6.5 6.5 6.5 6.5 6.5 6.5 6.5 6.5 6.5 6.7 7.1 7.4 7.5 7.8 6.9 6.0 4.5 4.6 3.1 2.5 5.9 6.1 5.5 6.0 7.3 6.6 7.1 6.4 6.4 6.7 7.6 8.3 7.3 5.6 2.9
6.5 6.5 6.5 6.5 6.5 6.5 6.5 6.5 6.5 6.5 6.5 6.5 6.5 6.5 6.5 6.5 6.5 6.5 6.9 7.2 7.4 7.7 7.9 7.7 7.7 6.0 3.4 2.5 1.3 4.2 4.5 6.3 6.5 7.9 8.0 7.9 7.4 6.9 6.8 7.3 7.5 7.1 7.1 3.9
6.5 6.5 6.5 6.5 6.5 6.5 6.5 6.5 6.5 6.5 6.5 6.5 6.5 6.5 6.5 6.5 6.8 7.1 7.2 7.3 7.7 7.8 8.0 8.1 8.0 5.9 4.8 4.6 5.0 4.4 1.0 4.3 3.0 4.5 7.4 7.8 7.8 8.2 7.7 7.1 7.8 7.3 6.4 7.0
6.5 6.5 6.5 6.5 6.5 6.5 6.5 6.5 6.5 6.5 6.5 6.5 6.5 6.5 6.5 6.8 6.8 7.1 7.2 7.6 7.6 7.9 8.0 8.3 8.4 7.8 6.2 4.7 3.8 3.2 2.7 4.7 4.0 5.1 5.9 7.6 7.5 7.6 7.8 7.9 7.8 7.9 7.2 6.6
6.8 6.5 6.5 6.5 6.5 6.5 6.5 6.5 6.5 6.5 6.5 6.5 6.5 6.5 6.5 6.5 6.5 6.8 7.3 7.6 7.7 7.7 7.9 8.1 8.3 8.4 8.0 6.4 4.6 2.7 2.7 3.4 2.7 3.1 4.1 5.4 7.4 6.9 7.2 7.5 7.6 7.6 7.4 7.3
6.5 6.5 6.5 6.5 6.5 6.5 6.5 6.5 6.5 6.5 6.5 6.5 6.5 6.5 6.5 6.5 6.5 6.9 7.5 7.5 7.5 7.6 7.8 8.0 8.3 8.4 8.5 7.4 6.4 5.8 4.7 3.2 2.9 3.7 3.5 2.6 3.7 5.8 7.2 7.6 7.5 7.6 7.9 7.8
6.5 6.5 6.5 6.5 6.5 6.5 6.5 6.5 6.5 6.5 6.5 6.5 6.5 6.5 6.5 6.9 7.1 7.1 7.3 7.3 7.4 7.6 7.8 8.0 8.0 8.1 8.0 8.0 7.6 5.7 5.3 4.6 4.4 3.3 2.0 2.8 2.9 2.2 2.7 4.9 6.6 7.3 7.5 7.3
6.5 6.5 6.5 6.5 6.5 6.5 6.5 6.5 6.5 6.5 6.5 6.5 6.5 6.5 6.7 6.5 6.7 6.8 7.0 7.4 7.5 7.8 8.0 8.1 8.3 8.3 8.5 8.6 8.7 8.0 6.4 5.4 4.4 4.5 4.5 2.8 3.5 3.8 1.7 2.2 2.5 5.3 6.6 6.3
6.5 6.5 6.5 6.5 6.5 6.5 6.5 6.5 6.5 6.5 6.5 6.5 6.5 6.5 6.7 7.0 7.3 7.3 7.6 7.7 7.8 8.0 8.1 8.3 8.6 8.6 8.8 9.1 9.1 8.8 8.5 7.9 6.6 6.2 5.0 4.5 3.9 3.8 2.8 3.0 2.7 3.2 3.8 5.3
6.6 6.5 6.5 6.5 6.5 6.5 6.5 6.5 6.5 6.5 6.5 6.5 6.5 6.6 6.9 7.1 7.4 7.2 7.9 8.1 8.2 8.3 8.5 8.6 8.9 9.0 8.9 8.9 9.0 8.8 8.9 8.6 8.7 8.2 7.8 8.2 7.3 4.8 3.6 3.9 2.9 2.9 3.2 3.8
6.5 6.5 6.5 6.5 6.5 6.5 6.5 6.5 7.1 6.7 6.5 6.7 7.0 6.7 6.7 7.0 6.5 6.6 8.0 8.4 8.4 8.6 8.7 8.7 8.9 9.0 9.0 9.0 9.2 8.5 8.8 8.7 8.4 8.4 6.8 6.2 7.1 7.2 5.7 5.0 4.3 4.1 3.9 4.3
6.5 6.5 6.5 6.5 6.5 6.5 6.5 6.8 7.2 6.5 6.5 6.9 7.2 7.2 7.2 6.5 7.1 7.0 8.1 8.3 8.6 8.7 8.7 9.0 8.9 8.8 8.9 9.1 8.9 8.6 8.7 8.6 8.3 7.7 7.2 6.5 6.0 5.9 7.9 8.4 6.0 4.2 4.1 4.3
6.5 6.5 6.5 6.5 6.5 6.5 7.0 6.8 6.5 6.7 7.2 7.3 7.4 6.1 6.8 7.7 8.0 8.1 7.9 8.3 8.5 8.5 8.7 8.9 8.7 8.8 9.1 9.1 9.0 8.7 8.5 7.9 6.9 6.7 6.3 6.0 6.0 6.3 6.8 6.9 7.3 6.3 5.3 4.5
6.5 6.5 6.5 6.5 6.5 6.8 7.3 7.1 7.6 7.8 7.4 7.5 7.5 7.8 7.8 7.9 7.9 8.1 8.1 8.3 8.5 8.6 8.7 8.9 8.8 8.8 9.0 9.1 9.0 8.8 8.8 9.0 8.8 7.8 6.7 6.1 5.6 5.7 6.0 6.5 7.1 7.6 7.4 7.1
6.5 6.9 6.5 6.5 6.6 6.8 7.3 7.7 7.9 8.0 7.8 8.0 8.2 8.1 8.1 7.9 8.1 8.1 8.2 8.4 8.4 8.6 8.7 8.9 8.8 8.7 8.7 9.0 9.1 8.9 8.4 7.8 7.3 7.3 7.9 8.6 8.2 6.7 6.7 7.1 7.6 8.3 8.5 8.4
6.7 6.7 6.5 6.5 6.7 7.1 7.4 7.7 7.9 8.0 8.2 8.2 8.3 8.3 8.2 8.2 8.1 8.2 8.2 8.3 8.5 8.6 8.8 8.9 8.8 8.7 8.8 9.0 9.1 9.2 8.9 7.6 6.7 7.5 8.1 7.8 8.6 8.2 8.2 8.1 8.0 8.2 7.9 8.0
6.9 6.5 6.5 6.5 6.9 6.9 7.1 7.8 8.1 7.9 7.9 8.2 8.1 8.2 8.4 8.4 8.2 8.4 8.3 8.6 8.6 8.6 8.8 8.8 8.8 8.9 8.9 9.1 9.1 9.2 8.1 8.6 8.3 8.1 9.0 9.3 9.0 9.2 9.1 8.9 8.7 7.0 1.8 2.2
Wind_Speed
15 11 15 19 20 20 21 18 11 7 22 18 13 15 15 12 14 12 17 19 18 16 15 17 16 17 15 13 11 8 10 8 6 4 3 3 3 4 6 12 14 13 10 10
11 16 17 20 18 23 23 13 10 13 23 20 16 11 8 8 8 13 16 17 14 9 15 17 16 17 15 14 11 10 11 9 6 5 2 3 3 4 3 6 10 12 8 6
17 14 19 17 19 21 21 17 12 12 17 19 16 6 10 7 17 19 12 16 17 17 11 18 16 16 16 15 13 10 11 10 8 5 7 4 3 3 4 3 6 8 11 7
19 16 18 17 17 18 17 17 19 22 18 8 13 5 15 19 26 15 16 16 15 17 16 17 18 18 18 17 14 12 11 11 8 3 5 7 1 2 1 2 6 6 10 6
18 15 16 17 18 13 18 11 14 19 13 20 19 6 5 3 13 19 20 17 15 18 13 13 20 15 21 18 16 14 11 12 9 7 4 6 8 4 8 1 5 4 8 9
15 16 11 11 14 12 21 12 9 6 9 11 21 14 8 3 7 9 20 18 16 15 18 13 12 12 18 18 17 16 14 12 9 7 8 6 13 12 8 5 3 5 4 5
17 17 12 14 17 17 15 13 8 10 9 12 20 11 6 14 10 10 12 9 5 2 15 16 17 17 9 20 19 17 16 13 12 10 9 8 6 11 3 7 7 4 1 2
13 14 17 13 14 10 13 18 10 14 12 12 18 11 10 19 14 13 6 5 5 10 13 14 14 9 8 13 20 19 17 15 14 12 10 8 7 8 12 12 4 5 3 1
14 15 15 6 16 1 16 17 18 15 20 13 9 14 13 18 17 13 7 7 8 10 6 16 18 15 16 6 2 20 19 16 15 14 10 9 7 7 5 4 4 5 6 4
13 11 15 10 5 9 14 9 17 14 14 14 11 13 13 16 14 12 11 10 10 11 15 16 15 14 7 4 11 13 19 17 15 14 11 10 10 8 6 4 4 3 14 13
16 9 9 15 12 15 11 11 12 17 15 10 11 4 6 17 13 14 12 9 8 10 11 11 12 13 13 4 9 13 14 12 12 12 12 11 10 10 7 6 4 4 2 14
12 4 11 13 13 19 16 13 16 12 17 10 7 3 5 11 14 14 12 9 8 8 9 11 14 14 12 11 6 2 13 18 10 8 11 11 9 9 11 8 7 5 5 3
10 9 3 8 7 7 8 13 15 12 15 15 5 6 7 14 13 11 13 12 10 9 11 13 14 15 13 10 8 6 8 10 10 6 8 11 12 11 9 9 8 8 6 5
6 12 8 5 12 9 17 15 13 13 11 13 8 19 15 15 13 11 13 12 12 11 11 12 14 15 14 14 13 11 9 8 11 11 9 5 7 9 8 7 8 7 7 8
4 9 11 4 7 11 13 20 17 10 15 11 17 19 15 13 13 12 12 12 12 11 12 12 14 14 13 14 13 12 9 7 6 6 10 12 12 11 3 5 7 7 8 8
2 8 10 10 6 5 10 6 3 5 11 14 18 18 17 15 13 14 12 12 12 12 12 12 10 12 12 12 10 10 8 9 10 9 10 11 10 10 13 12 7 6 8 9
4 7 10 11 13 12 10 10 9 8 10 4 14 15 16 17 14 11 9 11 11 11 11 11 11 10 10 11 10 7 7 6 6 8 9 9 8 9 9 9 11 10 7 7
2 8 9 10 9 14 7 7 9 12 11 4 12 22 19 18 15 14 12 12 11 10 9 9 9 9 10 11 10 7 8 4 4 6 6 8 9 9 8 9 10 11 10 9
3 6 6 9 11 12 9 3 4 7 8 17 19 17 15 15 17 12 11 11 10 8 7 8 7 7 9 10 9 8 7 8 10 11 11 9 5 6 7 7 6 6 8 7
6 6 7 7 11 12 12 11 3 0 5 9 17 16 16 12 9 10 11 10 9 9 8 5 6 8 10 10 10 9 9 8 9 10 10 10 11 9 5 4 5 5 5 7
5 5 7 8 6 4 9 10 4 4 2 14 16 19 21 11 7 13 12 10 8 6 8 6 6 8 7 8 8 8 8 9 9 8 8 8 9 9 9 2 3 3 6 6
3 5 5 7 9 6 7 4 5 4 5 9 5 14 17 15 16 13 9 8 6 5 5 5 6 6 6 7 7 7 7 9 9 8 8 8 8 8 8 9 6 6 6 6
5 5 4 6 3 5 6 8 5 4 6 9 8 10 13 12 12 11 8 5 5 3 3 4 5 4 6 7 6 7 7 7 8 9 9 9 9 8 9 9 8 7 7 7
9 5 4 4 8 7 5 5 2 2 9 6 7 5 5 7 8 7 5 5 3 3 3 4 4 5 6 6 8 8 9 10 11 11 11 9 9 9 9 8 8 8 8 7
5 3 5 7 11 2 1 2 4 4 5 9 7 8 8 6 7 6 5 4 2 2 2 5 4 4 5 7 8 9 9 10 10 11 10 11 9 9 9 9 9 9 9 7
6 5 4 6 4 6 7 7 9 7 6 6 8 7 7 7 7 7 5 4 2 2 3 3 5 6 7 8 8 8 9 10 11 12 9 9 10 9 9 10 10 12 14 14
Wind_Direction
199 215 211 212 220 241 219 213 195 308 132 112 140 152 182 208 242 185 172 172 164 161 158 159 164 154 152 145 162 147 134 138 138 208 173 138 184 132 126 168 196 160 156 134
181 223 225 230 221 237 255 276 149 125 103 109 132 133 163 211 236 228 181 178 161 142 158 163 167 156 152 148 164 157 140 154 188 204 51 63 61 275 159 132 139 127 130 147
224 216 234 219 236 226 240 228 150 169 110 118 120 123 146 219 238 252 190 186 155 151 177 168 168 158 153 151 162 169 153 170 209 203 117 68 299 182 134 163 154 147 154 171
232 242 197 232 241 224 242 232 146 166 134 154 177 146 189 193 209 235 157 207 178 158 200 172 171 169 160 156 163 166 163 177 214 197 154 153 105 354 287 39 135 156 158 164
219 230 211 222 225 213 242 240 178 212 193 124 194 154 208 247 291 181 187 171 185 177 187 186 175 185 156 159 163 164 178 178 209 158 156 167 103 299 280 75 151 148 154 165
242 218 228 219 232 227 238 299 183 253 213 188 195 208 165 122 318 139 159 165 177 176 188 204 191 195 154 162 163 162 180 185 203 189 183 195 158 180 238 239 144 176 171 158
225 234 210 217 217 230 218 247 204 209 226 248 166 207 141 153 99 35 55 48 13 211 204 192 186 209 159 163 165 162 174 188 188 205 192 205 155 107 25 206 212 108 118 199
210 216 192 207 241 224 202 235 208 203 223 228 168 136 126 123 108 87 31 59 10 113 294 263 187 168 239 173 167 163 172 184 193 194 204 208 193 165 182 215 150 151 170 278
209 223 187 180 231 282 190 233 249 231 222 226 112 99 128 126 114 121 99 56 35 350 247 194 248 168 197 286 51 164 171 184 191 199 201 206 208 212 196 214 189 173 160 162
290 293 154 171 278 279 271 257 241 253 271 253 138 155 150 139 124 101 69 51 23 18 2 28 41 44 20 89 34 319 167 179 188 199 196 201 202 207 230 272 203 319 110 110
287 162 204 191 206 231 223 252 257 265 256 238 169 96 90 131 119 103 89 65 32 24 16 46 56 50 38 69 43 347 9 195 180 206 192 197 200 197 203 226 206 252 150 153
295 319 188 212 210 219 256 251 233 245 251 273 91 78 64 109 111 103 98 85 61 41 36 45 63 65 50 70 128 252 40 328 1 276 195 199 194 202 188 200 213 206 253 245
347 242 151 142 185 235 242 243 271 270 262 273 178 137 136 106 102 110 108 99 81 60 51 54 62 73 71 68 58 68 111 303 318 22 326 211 189 197 199 190 200 193 203 242
302 293 360 351 331 303 212 240 242 265 276 276 68 137 141 129 121 126 112 104 97 88 64 66 64 70 83 75 67 49 47 15 350 21 359 8 220 191 202 202 201 199 190 197
299 296 302 213 264 319 325 210 234 246 274 336 137 143 143 141 149 135 119 114 103 89 80 64 68 64 64 76 79 82 81 60 28 5 23 20 21 7 244 266 232 211 205 199
296 294 306 299 268 267 313 355 17 245 262 113 119 136 139 136 134 144 138 125 111 100 91 84 57 77 64 48 70 75 70 70 61 47 41 23 12 16 17 360 306 255 234 218
239 286 274 266 278 266 245 250 254 232 262 160 150 154 145 145 142 139 131 123 111 102 92 85 77 71 65 74 42 56 85 90 79 72 63 51 23 19 11 1 8 339 288 281
230 248 271 274 276 253 260 346 289 267 229 119 91 150 159 154 143 146 145 133 114 105 89 69 66 53 58 62 58 32 36 93 114 89 95 74 49 26 27 9 15 355 356 326
198 282 245 245 235 252 211 210 261 275 181 109 127 147 154 147 128 116 121 120 115 108 90 64 48 56 53 30 42 21 42 22 40 31 22 19 63 47 27 19 358 348 341 328
275 207 282 268 253 268 31 82 23 309 239 132 132 132 133 133 160 161 143 132 114 91 81 57 44 50 45 21 19 10 16 17 30 20 14 354 352 1 8 7 341 333 321 315
202 253 242 247 268 101 98 81 358 189 345 166 150 158 163 151 86 99 114 104 103 100 94 86 62 53 37 25 12 6 9 17 8 357 349 344 341 331 303 325 317 312 322 318
291 196 220 249 257 250 86 83 321 52 62 50 73 108 95 114 118 115 119 126 120 100 86 69 65 45 18 27 17 6 6 0 345 337 329 328 323 319 321 319 309 290 277 276
274 337 308 16 50 61 70 66 74 68 85 73 80 76 112 127 129 132 135 131 112 97 63 42 43 26 28 20 10 356 356 341 338 328 322 317 310 301 293 291 285 277 260 237
198 264 283 332 150 167 129 77 102 110 125 104 116 118 130 140 132 141 150 150 117 71 46 32 14 12 9 6 358 357 354 346 335 324 318 311 309 302 293 284 281 276 272 270
248 168 221 258 289 287 135 268 193 182 163 162 169 165 184 188 167 174 167 152 175 102 53 32 354 352 354 3 352 340 340 336 326 320 315 307 293 285 282 273 273 274 272 278
277 216 229 260 355 346 290 199 173 198 200 182 185 199 191 188 194 169 182 168 166 99 31 340 359 355 348 344 327 341 339 326 327 317 308 310 312 302 302 302 299 281 246 262